Starlink 34332

operational
NORAD ID: 64213 Int'l Des: 2025-117 Owner: SPXS Country: US Constellation: starlink
LEOCIRCULAR

Starlink 34332について

説明を読み込み中...

リアルタイム位置

3D地球を読み込み中...

次回通過

高度履歴

Altitude vs Time

uPlot chart will show altitude changes over time

軌道要素

1 64213U 25117L 25340.63085724 .00063754 00000-0 21435-2 0 9993
2 64213 53.1608 112.1583 0001705 79.1289 280.9904 15.30242124 30303
Epoch: Dec 6, 2025 • Age: 15 hours

現在のステータス

高度 488.8 km
速度 7.62 km/s
衛星直下点 -39.40°S, 156.82°E
打ち上げ日 May 31, 2025
運用期間 0.5 years
タイプ internet

技術仕様

分類 Payload
質量 575.00 kg
乾燥質量 530.00 kg
総質量 575.00 kg
長さ 0.30 m
直径 4.10 m
スパン 29.00 m
形状 Box + pan
製造者 SPXS
バスタイプ Starlink V2MO
フェーズステータス In Orbit
所有者/国 SPXS/US

大規模コンステレーション

Loading constellations...